Total_Precipitation_Accumulation
0.04 0.02 0.00 0.00 0.00 0.01 0.03 0.01 0.01 0.00 0.00 0.00 0.00 0.00 0.00 0.00 0.00 0.00 0.00 0.00 0.00 0.00 0.00 0.00 0.00 0.00 0.00 0.00 0.00 0.00 0.00 0.00 0.00 0.00 0.01 0.02 0.03 0.01 0.01 0.01 0.00 0.00
0.04 0.03 0.02 0.01 0.01 0.00 0.00 0.00 0.00 0.00 0.00 0.00 0.00 0.00 0.00 0.00 0.00 0.00 0.00 0.00 0.00 0.00 0.00 0.00 0.00 0.00 0.00 0.00 0.00 0.00 0.00 0.00 0.00 0.00 0.00 0.00 0.00 0.00 0.00 0.00 0.00 0.00
0.04 0.03 0.02 0.03 0.03 0.00 0.01 0.02 0.00 0.00 0.00 0.00 0.00 0.00 0.00 0.00 0.00 0.00 0.00 0.00 0.00 0.00 0.00 0.00 0.00 0.00 0.00 0.00 0.00 0.00 0.00 0.00 0.00 0.00 0.00 0.00 0.00 0.00 0.00 0.00 0.00 0.00
0.15 0.09 0.03 0.03 0.00 0.02 0.04 0.00 0.02 0.02 0.00 0.00 0.00 0.00 0.00 0.00 0.00 0.00 0.00 0.00 0.00 0.00 0.00 0.00 0.00 0.00 0.00 0.00 0.00 0.00 0.00 0.00 0.00 0.00 0.00 0.00 0.00 0.00 0.00 0.00 0.00 0.00
0.29 0.13 0.05 0.05 0.04 0.04 0.04 0.05 0.04 0.01 0.00 0.00 0.00 0.00 0.00 0.00 0.00 0.00 0.00 0.00 0.00 0.00 0.00 0.00 0.00 0.00 0.00 0.00 0.00 0.00 0.00 0.00 0.00 0.00 0.00 0.00 0.00 0.00 0.00 0.00 0.00 0.00
0.21 0.16 0.10 0.07 0.02 0.04 0.06 0.01 0.00 0.00 0.00 0.00 0.00 0.00 0.00 0.00 0.00 0.00 0.00 0.00 0.00 0.00 0.00 0.00 0.00 0.00 0.00 0.00 0.00 0.00 0.00 0.00 0.00 0.00 0.00 0.00 0.00 0.00 0.00 0.00 0.00 0.00
0.11 0.08 0.07 0.03 0.04 0.04 0.01 0.03 0.03 0.00 0.00 0.00 0.00 0.00 0.00 0.00 0.00 0.00 0.00 0.00 0.00 0.00 0.00 0.00 0.00 0.00 0.00 0.00 0.00 0.00 0.00 0.00 0.00 0.00 0.00 0.00 0.00 0.00 0.00 0.00 0.00 0.00
0.05 0.03 0.05 0.03 0.01 0.06 0.04 0.08 0.02 0.00 0.01 0.00 0.00 0.00 0.01 0.00 0.00 0.00 0.00 0.00 0.00 0.00 0.00 0.00 0.00 0.00 0.00 0.00 0.00 0.00 0.00 0.00 0.00 0.00 0.00 0.00 0.00 0.00 0.00 0.00 0.00 0.00
0.04 0.04 0.03 0.07 0.01 0.02 0.07 0.11 0.04 0.15 0.04 0.01 0.01 0.01 0.01 0.00 0.01 0.01 0.01 0.00 0.00 0.00 0.00 0.00 0.00 0.00 0.00 0.00 0.00 0.00 0.00 0.00 0.00 0.00 0.00 0.00 0.00 0.00 0.00 0.00 0.00 0.00
0.26 0.13 0.08 0.05 0.05 0.05 0.08 0.01 0.01 0.04 0.06 0.15 0.04 0.09 0.01 0.01 0.01 0.00 0.00 0.00 0.00 0.00 0.00 0.00 0.00 0.00 0.00 0.00 0.00 0.00 0.00 0.00 0.00 0.00 0.00 0.00 0.00 0.00 0.00 0.00 0.00 0.00
0.31 0.41 0.24 0.21 0.20 0.26 0.10 0.03 0.02 0.10 0.28 0.29 0.10 0.13 0.14 0.10 0.01 0.00 0.00 0.00 0.01 0.01 0.00 0.00 0.00 0.00 0.00 0.00 0.00 0.00 0.00 0.00 0.00 0.00 0.00 0.00 0.00 0.00 0.00 0.00 0.00 0.00
0.48 0.56 0.38 0.29 0.43 0.45 0.40 0.59 0.42 0.32 0.27 0.16 0.07 0.17 0.13 0.09 0.07 0.12 0.05 0.11 0.18 0.01 0.03 0.04 0.02 0.00 0.00 0.00 0.00 0.00 0.00 0.00 0.00 0.00 0.01 0.01 0.01 0.00 0.00 0.00 0.00 0.00
0.48 0.53 0.76 1.12 1.13 1.03 0.85 0.65 0.71 0.77 0.72 0.54 0.31 0.25 0.36 0.52 0.47 0.37 0.32 0.19 0.09 0.02 0.02 0.01 0.06 0.08 0.03 0.02 0.02 0.04 0.02 0.02 0.02 0.02 0.01 0.00 0.01 0.01 0.01 0.00 0.01 0.01
0.70 0.94 0.85 0.69 0.68 0.75 0.88 0.81 0.97 0.86 0.78 0.70 0.75 0.51 0.56 0.51 0.50 0.45 0.39 0.21 0.19 0.19 0.20 0.14 0.10 0.17 0.17 0.14 0.12 0.15 0.07 0.05 0.05 0.03 0.04 0.04 0.04 0.03 0.06 0.26 0.29 0.05
0.83 0.73 0.49 0.40 0.36 0.48 0.85 0.97 0.74 0.55 0.54 0.56 0.46 0.38 0.41 0.38 0.41 0.47 0.21 0.18 0.16 0.14 0.14 0.26 0.14 0.18 0.12 0.25 0.20 0.19 0.12 0.12 0.15 0.12 0.09 0.06 0.05 0.02 0.02 0.05 0.05 0.10
0.35 0.25 0.39 0.24 0.52 0.31 0.17 0.27 0.23 0.43 0.33 0.34 0.36 0.39 0.32 0.30 0.23 0.24 0.27 0.33 0.24 0.17 0.58 0.40 0.66 0.23 0.22 0.10 0.09 0.12 0.14 0.13 0.06 0.08 0.07 0.04 0.04 0.04 0.07 0.07 0.04 0.03
0.07 0.06 0.11 0.08 0.09 0.08 0.05 0.06 0.04 0.09 0.10 0.06 0.09 0.11 0.22 0.39 0.35 0.38 0.24 1.04 0.48 0.39 0.22 0.09 0.05 0.03 0.04 0.04 0.02 0.01 0.01 0.01 0.15 0.11 0.05 0.04 0.05 0.07 0.04 0.11 0.07 0.28
0.03 0.12 0.14 0.13 0.19 0.15 0.13 0.07 0.05 0.05 0.14 0.24 0.10 0.32 0.80 0.53 0.09 0.11 0.42 0.46 0.47 0.35 0.35 0.35 0.24 0.24 0.10 0.08 0.02 0.01 0.02 0.09 0.06 0.03 0.04 0.03 0.04 0.04 0.06 0.12 0.50 0.66
0.02 0.02 0.01 0.03 0.14 0.13 0.15 0.19 0.04 0.04 0.04 0.07 0.10 0.13 0.21 0.14 0.26 0.22 0.17 0.12 0.11 0.44 0.45 0.86 0.89 0.32 0.22 0.16 0.19 0.17 0.19 0.21 0.08 0.08 0.06 0.14 0.08 0.07 0.21 0.35 0.36 0.43
0.00 0.00 0.01 0.07 0.08 0.02 0.04 0.05 0.04 0.04 0.04 0.05 0.05 0.08 0.06 0.09 0.13 0.06 0.09 0.36 0.20 0.07 0.16 0.48 0.99 0.34 0.23 0.13 0.09 0.07 0.07 0.11 0.08 0.05 0.06 0.08 0.11 0.40 0.68 0.74 0.96 0.31
0.00 0.00 0.00 0.00 0.00 0.00 0.01 0.02 0.03 0.03 0.02 0.02 0.03 0.05 0.04 0.11 0.04 0.10 0.13 0.34 0.29 0.33 0.50 0.55 0.39 0.31 0.11 0.08 0.11 0.05 0.06 0.06 0.20 0.13 0.13 0.09 0.36 0.92 0.39 0.14 0.25 0.18
0.00 0.00 0.00 0.00 0.00 0.00 0.00 0.01 0.01 0.02 0.03 0.03 0.02 0.03 0.03 0.07 0.03 0.08 0.09 0.14 0.13 0.18 0.19 0.96 0.97 0.25 0.19 0.11 0.04 0.12 0.30 0.21 0.16 0.20 0.26 0.29 1.01 0.48 0.34 0.20 0.12 0.05
0.00 0.00 0.00 0.00 0.00 0.00 0.00 0.00 0.00 0.01 0.01 0.02 0.02 0.02 0.02 0.03 0.07 0.05 0.04 0.08 0.05 0.15 0.15 0.25 0.10 0.11 0.01 0.01 0.00 0.00 0.12 0.05 0.02 0.12 0.22 0.40 0.27 0.11 0.14 0.15 0.13 0.05
0.00 0.00 0.00 0.00 0.00 0.00 0.00 0.00 0.00 0.00 0.00 0.00 0.01 0.02 0.02 0.02 0.03 0.03 0.03 0.05 0.13 0.08 0.15 0.37 0.62 0.47 0.02 0.00 0.00 0.00 0.02 0.04 0.03 0.04 0.13 0.07 0.04 0.13 0.09 0.14 0.42 0.02
0.00 0.00 0.00 0.00 0.00 0.00 0.00 0.00 0.00 0.00 0.00 0.00 0.00 0.00 0.01 0.03 0.02 0.02 0.03 0.04 0.06 0.14 0.11 0.09 0.09 0.02 0.00 0.00 0.00 0.00 0.04 0.23 0.14 0.06 0.05 0.16 0.22 0.10 0.03 0.01 0.03 0.04
0.01 0.00 0.00 0.00 0.00 0.00 0.01 0.00 0.00 0.00 0.00 0.00 0.00 0.00 0.02 0.03 0.02 0.02 0.03 0.03 0.05 0.03 0.03 0.07 0.12 0.04 0.00 0.00 0.00 0.00 0.00 0.11 0.06 0.03 0.31 0.06 0.14 0.04 0.02 0.04 0.04 0.02